Miscellaneous Local Product
Issued by NWS North Platte, NE

Home | Current Version | Previous Version | Text Only | Print | Product List | Glossary On
Versions: 1 2 3 4 5 6 7 8 9 10 11 12 13 14 15 16 17 18 19 20 21 22 23 24 25 26 27 28 29 30 31 32 33 34 35 36 37 38 39 40 41 42 43 44 45 46 47 48 49 50
237
AXUS43 KLBF 101010
MISLBF


WESTERN AND NORTH CENTRAL NEBRASKA HOURLY WEATHER ROUNDUP
NATIONAL WEATHER SERVICE NORTH PLATTE NE
400 AM CST SAT DEC 10 2016

NOTE: "FAIR" INDICATES FEW OR NO CLOUDS BELOW 12,000 FEET WITH NO
SIGNIFICANT WEATHER AND/OR OBSTRUCTIONS TO VISIBILITY.

NOTE: STATIONS NOT REPORTING VARIABLES SUCH AS SKY/WEATHER OR
PRESSURE ARE PROVIDED BY RAWS AND APRS NETWORKS AND ARE NOT UNDER
NATIONAL WEATHER SERVICE QUALITY CONTROL.

...OBSERVATIONS IN AND NEAR THE EASTERN PANHANDLE OF NEBRASKA...

CITY           SKY/WX    TMP DP  RH WIND       PRES   REMARKS
PINE RIDGE     CLOUDY     8   3  80 E7        30.13F WCI  -3
CHADRON        CLOUDY     7   2  80 N6        30.12F WCI  -3
ALLIANCE       CLOUDY    10   7  87 SE8       30.05F WCI  -2
SIDNEY         CLOUDY    19  16  88 SE6       30.05F WCI  11
$$

...OBSERVATIONS IN NORTHERN NEBRASKA AND FAR SOUTHERN SOUTH DAKOTA...

CITY           SKY/WX    TMP DP  RH WIND       PRES   REMARKS
WINNER         LGT SNOW   6   1  80 E9        30.34F WCI  -8
VALENTINE      LGT SNOW   7   2  80 E8        30.26F VSB 3/4 WCI  -6
THEDFORD       LGT SNOW  12   9  87 E9        30.22F WCI   0
AINSWORTH      LGT SNOW   9   6  89 E8        30.27F WCI  -3
O`NEILL        LGT SNOW  11   8  88 E5        30.36F WCI   2
ORD            LGT SNOW  17  12  80 E6        30.32F WCI   9
BROKEN BOW     CLOUDY    20  14  77 SE10      30.24F WCI   9
VALENTINE NWR    N/A      7   3  82 E8          N/A  WCI  -5
BUTTE            N/A      5   2  88 NE6         N/A  WCI  -6
HALSEY           N/A     10   6  84 E6          N/A  WCI   0
CHAMBERS         N/A     12   1  61 E3          N/A
EWING            N/A     12  10  90 NE3         N/A
$$

...OBSERVATIONS IN SOUTHWEST NEBRASKA AND FAR NORTHEAST COLORADO...

CITY           SKY/WX    TMP DP  RH WIND       PRES   REMARKS
HOLYOKE        FAIR      21  18  86 CALM      30.11R
IMPERIAL       CLOUDY    19  14  81 E6        30.12F WCI  11
OGALLALA       CLOUDY    19  14  84 E8        30.14F WCI   8
NORTH PLATTE   CLOUDY    18  12  77 E9        30.19F WCI   7
MCCOOK         CLOUDY    19  14  81 E7        30.20F WCI  10
LEXINGTON      CLOUDY    19  14  78 E8        30.25F WCI   9
STAPLETON        N/A     13   9  84 CALM        N/A
GOTHENBURG       N/A     16  12  82 E8          N/A  WCI   5
CALLAWAY         N/A     18  14  82 SE10        N/A  WCI   6
$$

...OBSERVATIONS IN CENTRAL LINCOLN COUNTY AREA...

CITY           SKY/WX    TMP DP  RH WIND       PRES   REMARKS
N.P. AIRPORT   CLOUDY    18  12  77 E9        30.19F WCI   7
N.P. DOWNTOWN    N/A     17  13  84 E5          N/A  WCI  10
N.P. SOUTHEAST   N/A     16  12  82 E3          N/A
N.P. HILLCREST   N/A     17  13  82 E8          N/A  WCI   7
$$

...SOME OBSERVATIONS FROM AROUND THE REGION...

CITY           SKY/WX    TMP DP  RH WIND       PRES   REMARKS
LARAMIE        CLOUDY    38  20  48 SW22G30     N/A  WCI  27
CHEYENNE       CLOUDY    28  20  71 CALM      29.96F
DENVER         CLOUDY    19  16  88 N5        30.00S FOG     WCI  12
AKRON          CLOUDY    20  17  88 W6        30.01F WCI  12
SCOTTSBLUFF    CLEAR     14   8  77 E15       30.02F WCI  -1
RAPID CITY     CLOUDY     3  -2  79 S16       30.12F WCI -16
BISMARCK       CLOUDY   -13 -17  82 NE5       30.45F WCI -25
PIERRE         CLOUDY    -2  -8  76 E9        30.38F WCI -18
SIOUX FALLS    CLOUDY    10   6  84 NE5       30.44F WCI   2
OMAHA          CLOUDY    23  13  65 SE3       30.47S
GRAND ISLAND   LGT SNOW  19  18  95 SE8       30.35F VSB 1   WCI   9
KANSAS CITY    CLOUDY    25  12  58 SE7       30.47F WCI  17
WICHITA        CLOUDY    21  14  74 SE7       30.39F WCI  12
OKLAHOMA CITY  CLOUDY    34  19  54 S9        30.41S WCI  27
DALLAS         CLOUDY    38  23  55 SE10      30.46F WCI  31
AMARILLO       CLOUDY    25  24  96 SE12      30.17F WCI  14
DODGE CITY     CLOUDY    19  14  81 S12       30.24F WCI   7
HAYS           CLOUDY    20  15  81 S9        30.27F WCI   9
GOODLAND       CLOUDY    20  17  88 S13       30.06F WCI   7
$$




USA.gov is the U.S. government's official web portal to all federal, state and local government web resources and services.